2016 Results

August 6, 2016

Holme Howler 10k Results 2016


Position - Actual Time - Race No - Surname - First Name - Club Name - Category - Sex


1 00:40:03 100 Friar Gavin M
2 00:40:28 163 Clowes Jamie (HR) M
3 00:40:31 401 Merckel Ben Lonsdale Fell Runners M
4 00:40:40 406 Duckett Richard M
5 00:41:31 102 Searle Dominique F
6 00:42:45 97 Snell Christopher Fitness Dynamics Superheroes M
7 00:42:56 192 Lomax Bobbie Warrington RC F
8 00:43:32 157 Lamb Peter (HR) M
9 00:44:02 404 Newton Helen F
10 00:44:02 43 Laffan Michael M
11 00:44:30 52 Manley Rich M
12 00:44:38 411 Clokey Andrew M
13 00:45:51 187 Forbes Emma F
14 00:45:59 98 Mitchell Michael M
15 00:46:13 61 Mason Philip M
16 00:46:17 51 Armistead Dave M
17 00:46:43 195 Eccles Darren Ulverston Tri Club M
18 00:46:54 164 Preston Kevin M
19 00:47:15 181 Houston Rob M
20 00:47:22 402 Hine Paul M
21 00:47:36 40 Laffan Daniel M
22 00:47:41 47 Brady Alan Spectrum Striders M
23 00:47:56 408 Shepherd Cecily F
24 00:48:06 28 Willink Sam M
25 00:48:10 407 Teasdale Paul M
26 00:48:19 27 Murry Joseph M
27 00:49:12 55 Houghton Lynette F
28 00:49:14 62 Perry Stephen Lancaster & Morecambe AC M
29 00:50:33 178 Ellinson David M
30 00:50:49 99 Kalaudis Haris Fitness Dynamics Superheroes M
31 00:50:55 194 Simpson Richard Fitness Dynamics Superheroes M
32 00:51:01 160 Forrest Tom M
33 00:51:02 150 Edmondson Paul M
34 00:51:05 149 Jones Robert M
35 00:51:07 148 Hunter Sam (HR) M
36 00:51:15 138 Grundy Stephen WCKM M
37 00:52:02 101 Hall David M
38 00:52:10 405 Hodgson John Dallam RC M
39 00:52:44 135 Price Chris WCKM M
40 00:52:51 60 Moul Sue Team Sujo F
41 00:52:51 59 Pearey Jodie Team Sujo F
42 00:52:55 15 Davies Joe (HR) M
43 00:53:49 22 Burgess Steve Thornton Cleveleys RC M
44 00:54:03 41 Forrest Johnathan M
45 00:54:03 42 Burns Gareth M
46 00:54:17 180 Bone John M
47 00:54:18 186 Wright Alan M
48 00:54:36 89 Johnson Lees The Duckpond M
49 00:55:15 169 Farrier Sam WCKM F
50 00:55:58 74 Woodend James (HR) M
51 00:56:04 193 Williams Michael Rochdale Harriers AC M
52 00:56:16 25 McNeill Janine Thornton Cleveleys RC F
53 00:56:38 1 Varcoe Dan Holme Bowling Club M
54 00:56:43 10 Grisedale Dave Holme Bowling Club M
55 00:56:43 71 Hunter Lee (HR) M
56 00:56:46 73 Woodend Marianna (HR) F
57 00:56:51 32 Tyler Hannah F
58 00:57:35 33 Nuttall Chris M
59 00:57:50 167 Nichols David M
60 00:57:50 166 Manderson Ian (HR) M
61 00:59:02 34 Blezard Donna F
62 00:59:02 137 Wemmie Kristie F
63 00:59:03 106 Bayliss David Red Rose Road Runners M
64 00:59:07 37 Turner Gary Fylde Coast Runners M
65 00:59:18 409 Berry Rose-Marie F
66 00:59:35 13 Brunton Dave Mersey Tri M
67 00:59:35 14 Brunton Zoe Mersey Tri F
68 00:59:38 70 Cooper Beth Fitness Dynamics Superheroes F
69 00:59:38 103 Orr Tony M
70 00:59:40 132 Benson Russ WCKM M
71 00:59:50 131 Rave Adam WCKM M
72 00:59:59 155 Hattersley Sam M
73 01:00:00 30 McCann Rob M
74 01:00:00 154 Hattersley Paul M
75 01:00:15 403 Jeffrey Rebecca F
76 01:00:30 172 Latto Matt (HR) M
77 01:00:34 174 Fowler Alex (HR) M
78 01:00:36 108 Bullock Gary M
79 01:01:12 171 Stockdale Philip (HR) M
80 01:01:26 68 Ogden Jess Fitness Dynamics Superheroes F
81 01:01:26 94 Butler Keith The Duckpond M
82 01:01:38 153 Todd Jonny M
83 01:02:06 410 Parsons Jennifer F
84 01:02:45 162 Dowker Stephanie F
85 01:02:51 191 Lois Vernam F
86 01:02:52 185 Clowes Anna F
87 01:02:54 143 Cribbens Darryl M
88 01:02:55 88 Holmes Linsay F
89 01:05:25 57 Gilchrist Trina F
90 01:05:40 8 Clarke Wendy (HR) F
91 01:05:46 16 Waring Val (HR) F
92 01:05:53 122 Gibbons Melissa Howling Hoops F
93 01:06:02 120 Grayken Kieron Howling Hoops M
94 01:06:09 128 Murie Leigh WCKM M
95 01:06:17 124 Tenz Daniel Howling Hoops M
96 01:06:23 125 Highman Ben Howling Hoops M
97 01:07:51 121 Glithero Laura Howling Hoops F
98 01:07:58 123 Wilson Helen Howling Hoops F
99 01:08:07 141 Bradburn Carrie F
100 01:08:07 140 Neale Jennifer F
101 01:08:27 93 Ashcroft Gary The Duckpond M
102 01:08:51 3 Richardson Tim (HR) M
103 01:08:51 2 Richardson Marty (HR) M
104 01:08:51 44 Egglestone Kirtsy F
105 01:08:56 45 Whelan Faye F
106 01:08:56 134 Morris Megan WCKM F
107 01:08:56 129 West Lee WCKM M
108 01:08:57 165 Graham Andrew M
109 01:09:26 36 Turner Lucy Fylde Coast Runners F
110 01:09:31 127 Winder Paula F
111 01:09:31 126 Kiyani Holly F
112 01:09:47 20 Gray Michael Thornton Cleveleys RC M
113 01:10:15 116 Harris Criag Andrew Dynamic Dolphins M
114 01:10:23 11 Warren Natalie Mudlife Crisis F
115 01:10:28 170 Mottram Laura Mudlife Crisis F
116 01:10:35 87 Craigie Heather Mudlife Crisis F
117 01:10:35 175 Buchan Vicky Mudlife Crisis F
118 01:10:35 53 Anderson Liz F
119 01:10:46 5 Dixon Samantha F
120 01:10:51 4 Conroy Sally F
121 01:12:06 26 James Gwen Thornton Cleveleys RC F
122 01:12:35 152 Todd Hannah F
123 01:12:35 151 Todd Marl F
124 01:12:35 130 Bulger Carl WCKM M
125 01:13:01 56 Ward Sain F
126 01:13:01 184 Booth Stewart M
127 01:13:12 54 Mayor Steve M
128 01:13:36 176 Woodridge Corinne Fitness Dynamics Superheroes F
129 01:13:47 182 Knox Kathryn Fitness Dynamics Superheroes F
130 01:13:50 48 Bradley Michelle Spectrum Striders F
131 01:13:50 49 Sinkinson Emily Spectrum Striders F
132 01:13:53 145 Nieznanski Gregor U.N. M
133 01:13:59 144 Bayman Edward U.N. M
134 01:14:01 31 Dixon Laura F
135 01:14:12 146 Duff Stephen U.N. M
136 01:14:38 18 Hayes Phil Thornton Cleveleys RC M
137 01:14:42 67 Green Amanda Fitness Dynamics Superheroes F
138 01:14:42 69 Cooper Naomi Fitness Dynamics Superheroes F
139 01:15:32 72 Jones Neil M
140 01:15:58 105 Broadhurst Steven M
141 01:16:04 161 Singleton Amy F
142 01:16:22 58 Jones-Barnes Laura Walney Wind Cheetahs F
143 01:16:40 39 Baxter Hazel Fylde Coast Runners F
144 01:16:48 90 Roberts Chris The Duckpond M
145 01:17:02 179 Carson Dave M
146 01:17:41 112 Taylor Vickie Dynamic Dolphins F
147 01:17:43 109 Higton Jilly Dynamic Dolphins F
148 01:17:48 63 Porthouse Paula F
149 01:17:49 64 Porthouse Rebekah F
150 01:17:50 65 Nicholls Michael M
151 01:19:26 110 Greenwood Felicity Dynamic Dolphins F
152 01:19:29 21 Hindley Debbie Thornton Cleveleys RC F
153 01:19:48 23 Waywell Kirsty Thornton Cleveleys RC F
154 01:20:02 24 Burgess Christine Thornton Cleveleys RC F
155 01:20:08 19 Randal Sharon Thornton Cleveleys RC F
156 01:20:32 111 Dixon Louise Dynamic Dolphins F
157 01:20:32 17 Livesy Karen Thornton Cleveleys RC F
158 01:20:45 114 Malin Georgia Dynamic Dolphins F
159 01:20:45 113 Tyson Donna Dynamic Dolphins F
160 01:21:23 118 Greenwood Joseph Dynamic Dolphins M
161 01:21:36 117 Greenwood Donna Dynamic Dolphins F
162 01:21:40 188 Omson Aimee F
163 01:21:59 91 Wright Simon The Duckpond M
164 01:22:24 95 Smith Alan The Duckpond M
165 01:22:36 139 Atkinson Gill F
166 01:22:36 156 Parrington Lee M
167 01:23:21 75 Pellegrino Mij Lanzarote Beach Bum's F
168 01:24:30 147 Hitchcox Kie(Keith) U.N. M
169 01:25:06 190 Morgan Paula F
170 01:25:15 86 Pidcock Nick Are we there yet? M
171 01:25:15 77 Dufton Chloe F
172 01:25:18 78 Rae Megan Are we there yet? F
173 01:25:18 79 Crompton Nicola Are we there yet? F
174 01:25:35 84 Marriner Alison Are we there yet? F
175 01:26:27 85 Carey Nigel Are we there yet? M
176 01:26:46 81 Beal Joel Are we there yet? M
177 01:26:59 80 Tasker Elizabeth Are we there yet? F
178 01:27:31 82 Crowhurst Jane Are we there yet? F
179 01:32:20 38 Chapman Philip Fylde Coast Runners M
180 01:36:10 76 Crowther Dan Lanzarote Beach Bum's M

Please reload

Featured Posts

I'm busy working on my blog posts. Watch this space!

Please reload

Recent Posts

July 11, 2017

September 2, 2016

August 10, 2016

August 6, 2016

July 10, 2016

June 14, 2016

March 11, 2016

Please reload

Archive